Regional Weather Roundup
Issued by NWS

Home | Current Version | Previous Version | Text Only | Print | Product List | Glossary Off
Versions: 1 2 3 4 5 6 7 8 9 10 11 12 13 14 15 16 17 18 19 20 21 22 23 24 25 26 27 28 29 30 31 32 33 34 35 36 37 38 39 40 41 42 43 44 45 46 47 48 49 50

000
ASUS43 KIND 102359
RWRIN

WEATHER ROUNDUP FOR INDIANA
NATIONAL WEATHER SERVICE INDIANAPOLIS IN
800 PM EDT THU JUL 10 2014

NOTE: "FAIR" INDICATES FEW OR NO CLOUDS BELOW 12,000 FEET WITH NO
SIGNIFICANT WEATHER AND/OR OBSTRUCTIONS TO VISIBILITY.

* - STATION DOES NOT REPORT WEATHER SUCH AS PRECIPITATION OR FOG.

+ - STATION NOT QUALITY CONTROLLED BY THE NATIONAL WEATHER SERVICE.
    USE DATA WITH CAUTION...ESPECIALLY DEWPOINT AND RELATIVE
    HUMIDITY OBSERVATIONS.

INZ001>003-010>013-019-020-110100-
NORTHWEST INDIANA

CITY           SKY/WX    TMP DP  RH WIND       PRES   REMARKS
GARY /AIRPORT/ SUNNY     73  48  40 E7        30.16R
RENSSELAER +   SUNNY     73  54  49 NE3       30.15R
VALPARAISO     SUNNY     73  51  46 NE5       30.16S
6HR MIN TEMP:  73; 6HR MAX TEMP:  77;


$$

LMZ046-743>745-110100-
SOUTHERN LAKE MICHIGAN

STATION/POSITION TIME  TEMP WIND        PRES
                       AIR  DIR/SP/G
                 (UTC) (F)  (DEG/KT/KT) (MB)
MICHIGAN CITY    2300   69   20/  9/ 11   N/A

$$

INZ004-005-014>016-021>024-110100-
NORTH CENTRAL INDIANA

CITY           SKY/WX    TMP DP  RH WIND       PRES   REMARKS
ELKHART        SUNNY     73  48  40 NE6       30.16S
GOSHEN         SUNNY     75  52  44 NE6       30.15R
6HR MIN TEMP:  72; 6HR MAX TEMP:  77;

SOUTH BEND     SUNNY     74  53  48 N9        30.15S
6HR MIN TEMP:  73; 6HR MAX TEMP:  77;


$$

INZ006>009-017-018-025>027-110100-
NORTHEAST INDIANA

CITY           SKY/WX    TMP DP  RH WIND       PRES   REMARKS
ANGOLA *+      SUNNY     73  55  53 N3        30.15S
FORT WAYNE     MOSUNNY   75  51  43 NW5       30.15R
6HR MIN TEMP:  74; 6HR MAX TEMP:  78;


$$

INZ028-029-035-036-043>045-051>053-110100-
WEST CENTRAL INDIANA

CITY           SKY/WX    TMP DP  RH WIND       PRES   REMARKS
GREENCASTLE +  SUNNY     73  54  49 N10       30.13S
LAFAYETTE      SUNNY     75  53  46 NE6       30.14R
6HR MIN TEMP:  74; 6HR MAX TEMP:  78;

TERRE HAUTE    SUNNY     76  56  49 NE6       30.12R
6HR MIN TEMP:  76; 6HR MAX TEMP:  81;


$$

INZ030>032-037>040-046>048-054>057-064-065-110100-
CENTRAL INDIANA

CITY           SKY/WX    TMP DP  RH WIND       PRES   REMARKS
INDIANAPOLIS   MOSUNNY   75  52  44 N12       30.12S
6HR MIN TEMP:  75; 6HR MAX TEMP:  80;

-EAGLE CREEK   SUNNY     76  52  43 N9        30.13R
6HR MIN TEMP:  76; 6HR MAX TEMP:  79;

KOKOMO *+      SUNNY     75  54  46 NE6       30.15R
MT COMFORT *+  SUNNY     75  55  50 N7        30.14S
SHELBYVILLE    SUNNY     78  55  44 N7        30.12S
6HR MIN TEMP:  78; 6HR MAX TEMP:  82;


$$

INZ033-034-041-042-049-050-058-059-110100-
EAST CENTRAL INDIANA

CITY           SKY/WX    TMP DP  RH WIND       PRES   REMARKS
MUNCIE         SUNNY     75  53  46 N7        30.14R
6HR MIN TEMP:  75; 6HR MAX TEMP:  78;


$$

INZ060-061-067>069-081>083-085>088-110100-
SOUTHWEST INDIANA

CITY           SKY/WX    TMP DP  RH WIND       PRES   REMARKS
EVANSVILLE     MOSUNNY   84  57  39 N5        30.08R
6HR MIN TEMP:  82; 6HR MAX TEMP:  86;

HUNTINGBURG *+ SUNNY     81  57  44 NE7       30.09R
6HR MIN TEMP:  81; 6HR MAX TEMP:  84;


$$

INZ062-063-066-070>080-084-089>092-110100-
SOUTH CENTRAL AND SOUTHEAST INDIANA

CITY           SKY/WX    TMP DP  RH WIND       PRES   REMARKS
BLOOMINGTON    PTSUNNY   78  56  46 N9        30.12R
6HR MIN TEMP:  77; 6HR MAX TEMP:  82;


$$



USA.gov is the U.S. government's official web portal to all federal, state and local government web resources and services.